When you browse on this site, cookies collect data to enhance your experience and personalize the content and advertising you see.
Visit our Privacy Policy to learn more. By continuing to use the site, you agree to this use of cookies and data.
  • In Sweden
  • List of Countries
  • For 7 days
  • Water Temperature
  • Weather Map
  • Weather Widgets
  • user-avatar
    Login

    Hourly Weather Zhmerynka

    Today, 22 September, Sunday

    Time Temperature Precipitation Wind Pressure Humidity
    00:00 +10°C° 0 mm 5 mps 737 mmHg 70%
    01:00 +10°C° 0 mm 5 mps 737 mmHg 69%
    02:00 +10°C° 0 mm 5 mps 737 mmHg 67%
    03:00 +9°C° 0 mm 5 mps 737 mmHg 69%
    04:00 +8°C° 0 mm 5 mps 736 mmHg 70%
    05:00 +7°C° 0 mm 5 mps 736 mmHg 71%
    06:00 +8°C° 0 mm 5 mps 736 mmHg 68%
    07:00 +9°C° 0 mm 5 mps 736 mmHg 64%
    08:00 +10°C° 0 mm 5 mps 736 mmHg 61%
    09:00 +13°C° 0 mm 6 mps 736 mmHg 58%
    10:00 +15°C° 0 mm 6 mps 736 mmHg 55%
    11:00 +17°C° 0 mm 6 mps 736 mmHg 51%
    12:00 +17°C° 0 mm 6 mps 736 mmHg 50%
    13:00 +19°C° 0 mm 5 mps 736 mmHg 48%
    14:00 +20°C° 0 mm 5 mps 735 mmHg 46%
    15:00 +20°C° 0 mm 5 mps 735 mmHg 48%
    16:00 +19°C° 0 mm 4 mps 735 mmHg 50%
    17:00 +19°C° 0 mm 3 mps 734 mmHg 52%
    18:00 +17°C° 0 mm 3 mps 734 mmHg 60%
    19:00 +14°C° 0 mm 3 mps 734 mmHg 67%
    20:00 +13°C° 0 mm 2 mps 734 mmHg 74%
    21:00 +13°C° 0 mm 2 mps 734 mmHg 78%
    22:00 +12°C° 0 mm 2 mps 734 mmHg 81%
    23:00 +10°C° 0 mm 2 mps 734 mmHg 84%

    Tomorrow, 23 September, Monday

    Time Temperature Precipitation Wind Pressure Humidity
    00:00 +10°C° 0 mm 2 mps 734 mmHg 85%
    01:00 +10°C° 0 mm 2 mps 734 mmHg 87%
    02:00 +10°C° 0 mm 2 mps 734 mmHg 88%
    03:00 +10°C° 0 mm 1 mps 734 mmHg 89%
    04:00 +10°C° 0 mm 1 mps 734 mmHg 89%
    05:00 +10°C° 0 mm 1 mps 734 mmHg 90%
    06:00 +11°C° 0 mm 1 mps 734 mmHg 87%
    07:00 +12°C° 0 mm 2 mps 735 mmHg 83%
    08:00 +13°C° 0 mm 2 mps 735 mmHg 80%
    09:00 +15°C° 0 mm 2 mps 735 mmHg 74%
    10:00 +16°C° 0 mm 2 mps 735 mmHg 68%
    11:00 +18°C° 0 mm 3 mps 735 mmHg 62%
    12:00 +18°C° 0 mm 3 mps 735 mmHg 60%
    13:00 +18°C° 0 mm 3 mps 735 mmHg 58%
    14:00 +19°C° 0 mm 3 mps 734 mmHg 56%
    15:00 +18°C° 0 mm 4 mps 734 mmHg 58%
    16:00 +18°C° 0 mm 4 mps 734 mmHg 60%
    17:00 +16°C° 0 mm 5 mps 734 mmHg 61%
    18:00 +14°C° 0 mm 4 mps 734 mmHg 66%
    19:00 +12°C° 0 mm 4 mps 734 mmHg 71%
    20:00 +11°C° 0 mm 4 mps 734 mmHg 76%
    21:00 +10°C° 0 mm 4 mps 734 mmHg 75%
    22:00 +10°C° 0 mm 4 mps 734 mmHg 75%
    23:00 +8°C° 0 mm 4 mps 734 mmHg 75%

    Day after tomorrow, 24 September, Tuesday

    Time Temperature Precipitation Wind Pressure Humidity
    00:00 +8°C° 0 mm 4 mps 734 mmHg 75%
    01:00 +8°C° 0 mm 3 mps 734 mmHg 75%
    02:00 +8°C° 0 mm 3 mps 734 mmHg 74%
    03:00 +8°C° 0 mm 3 mps 734 mmHg 75%
    04:00 +7°C° 0 mm 3 mps 734 mmHg 75%
    05:00 +7°C° 0 mm 3 mps 733 mmHg 75%
    06:00 +8°C° 0 mm 3 mps 733 mmHg 72%
    07:00 +9°C° 0 mm 3 mps 733 mmHg 69%
    08:00 +11°C° 0 mm 3 mps 733 mmHg 66%
    09:00 +13°C° 0 mm 3 mps 733 mmHg 60%
    10:00 +16°C° 0 mm 3 mps 734 mmHg 55%
    11:00 +19°C° 0 mm 2 mps 734 mmHg 50%
    12:00 +20°C° 0 mm 2 mps 733 mmHg 46%
    13:00 +21°C° 0 mm 2 mps 733 mmHg 42%
    14:00 +23°C° 0 mm 2 mps 732 mmHg 39%
    15:00 +23°C° 0 mm 1 mps 732 mmHg 41%
    16:00 +22°C° 0 mm 1 mps 732 mmHg 43%
    17:00 +22°C° 0 mm 1 mps 732 mmHg 46%
    18:00 +20°C° 0 mm 1 mps 732 mmHg 50%
    19:00 +18°C° 0 mm 1 mps 732 mmHg 54%
    20:00 +15°C° 0 mm 1 mps 732 mmHg 58%
    21:00 +14°C° 0 mm 1 mps 732 mmHg 63%
    22:00 +13°C° 0 mm 1 mps 732 mmHg 69%
    23:00 +12°C° 0 mm 2 mps 732 mmHg 74%

    25 September, Wednesday

    Time Temperature Precipitation Wind Pressure Humidity
    00:00 +12°C° 0 mm 1 mps 732 mmHg 77%
    01:00 +11°C° 0 mm 1 mps 732 mmHg 81%
    02:00 +11°C° 0 mm 1 mps 731 mmHg 84%
    03:00 +11°C° 0 mm 1 mps 731 mmHg 84%
    04:00 +11°C° 0 mm 1 mps 731 mmHg 84%
    05:00 +11°C° 0 mm 1 mps 731 mmHg 84%
    06:00 +12°C° 0 mm 2 mps 731 mmHg 78%
    07:00 +13°C° 0 mm 2 mps 731 mmHg 72%
    08:00 +14°C° 0 mm 3 mps 731 mmHg 66%
    09:00 +15°C° 0 mm 4 mps 731 mmHg 60%
    10:00 +17°C° 0 mm 5 mps 731 mmHg 54%
    11:00 +20°C° 0 mm 6 mps 732 mmHg 48%
    12:00 +20°C° 0 mm 7 mps 731 mmHg 50%
    13:00 +18°C° 0 mm 7 mps 731 mmHg 52%
    14:00 +18°C° 0 mm 7 mps 731 mmHg 54%
    15:00 +17°C° 0 mm 6 mps 730 mmHg 58%
    16:00 +16°C° 0 mm 5 mps 730 mmHg 62%
    17:00 +15°C° 0 mm 4 mps 730 mmHg 66%
    18:00 +15°C° 0 mm 4 mps 730 mmHg 68%
    19:00 +14°C° 0 mm 4 mps 730 mmHg 69%
    20:00 +14°C° 0 mm 4 mps 730 mmHg 71%
    21:00 +14°C° 0.1 mm 4 mps 730 mmHg 76%
    22:00 +13°C° 0.1 mm 4 mps 730 mmHg 80%
    23:00 +13°C° 0.1 mm 4 mps 730 mmHg 85%

    26 September, Thursday

    Time Temperature Precipitation Wind Pressure Humidity
    00:00 +13°C° 0.4 mm 4 mps 729 mmHg 88%
    01:00 +13°C° 0.4 mm 4 mps 729 mmHg 90%
    02:00 +13°C° 0.4 mm 4 mps 729 mmHg 92%
    03:00 +13°C° 0.4 mm 3 mps 729 mmHg 94%
    04:00 +13°C° 0.4 mm 3 mps 729 mmHg 95%
    05:00 +13°C° 0.4 mm 3 mps 729 mmHg 97%
    06:00 +13°C° 0.2 mm 3 mps 729 mmHg 96%
    07:00 +14°C° 0.2 mm 2 mps 729 mmHg 95%
    08:00 +14°C° 0.2 mm 2 mps 729 mmHg 95%
    09:00 +14°C° 0.3 mm 2 mps 730 mmHg 93%
    10:00 +14°C° 0.3 mm 2 mps 730 mmHg 91%
    11:00 +15°C° 0.3 mm 2 mps 730 mmHg 89%
    12:00 +15°C° 0.4 mm 2 mps 730 mmHg 89%
    13:00 +14°C° 0.4 mm 3 mps 730 mmHg 88%
    14:00 +14°C° 0.4 mm 3 mps 730 mmHg 88%
    15:00 +14°C° 0.1 mm 3 mps 730 mmHg 86%
    16:00 +14°C° 0.1 mm 3 mps 730 mmHg 85%
    17:00 +14°C° 0.1 mm 3 mps 730 mmHg 83%
    18:00 +13°C° 0 mm 3 mps 730 mmHg 85%
    19:00 +12°C° 0 mm 3 mps 730 mmHg 87%
    20:00 +11°C° 0 mm 3 mps 731 mmHg 88%
    21:00 +11°C° 0 mm 3 mps 731 mmHg 88%
    22:00 +10°C° 0 mm 3 mps 731 mmHg 88%
    23:00 +10°C° 0 mm 3 mps 731 mmHg 88%

    27 September, Friday

    Time Temperature Precipitation Wind Pressure Humidity
    00:00 +10°C° 0 mm 3 mps 731 mmHg 89%
    01:00 +9°C° 0 mm 3 mps 732 mmHg 90%
    02:00 +8°C° 0 mm 4 mps 732 mmHg 91%
    03:00 +8°C° 0 mm 4 mps 732 mmHg 91%
    04:00 +8°C° 0 mm 4 mps 732 mmHg 92%
    05:00 +8°C° 0 mm 4 mps 732 mmHg 93%
    06:00 +10°C° 0 mm 4 mps 732 mmHg 89%
    07:00 +11°C° 0 mm 4 mps 732 mmHg 86%
    08:00 +12°C° 0 mm 5 mps 732 mmHg 83%
    09:00 +13°C° 0 mm 5 mps 732 mmHg 78%
    10:00 +14°C° 0 mm 5 mps 733 mmHg 73%
    11:00 +16°C° 0 mm 6 mps 733 mmHg 68%
    12:00 +16°C° 0 mm 6 mps 733 mmHg 65%
    13:00 +17°C° 0 mm 6 mps 733 mmHg 62%
    14:00 +17°C° 0 mm 6 mps 733 mmHg 59%
    15:00 +17°C° 0 mm 5 mps 733 mmHg 63%
    16:00 +17°C° 0 mm 4 mps 733 mmHg 67%
    17:00 +17°C° 0 mm 3 mps 733 mmHg 70%
    18:00 +16°C° 0.1 mm 3 mps 733 mmHg 76%
    19:00 +14°C° 0.1 mm 3 mps 733 mmHg 81%
    20:00 +14°C° 0.1 mm 2 mps 734 mmHg 87%
    21:00 +14°C° 0.1 mm 2 mps 734 mmHg 89%
    22:00 +13°C° 0.1 mm 2 mps 734 mmHg 91%
    23:00 +13°C° 0.1 mm 2 mps 734 mmHg 93%
    Show more